Showing default

STARONE C3, 38991

Orbit data source: Space-Track

STARONE C3, 38991 is a payload satellite owned by Star One (BR) in GEO that was launched on Sat, 10 Nov 2012 UTC via an ARIANE 5ECA launch vehicle from the French Guiana (FRGUI). Payloads include a variety of satellites, spacecraft, and rockets equipped with specific instruments for various scientific and technological missions. These include communications satellites like Starlink; space stations such as the ISS; scientific satellites like the Hubble; Earth observation satellites from companies like Planet Labs, Umbra, and HawkEye 360; GPS; miniature CubeSats for education and research; and military/defense satellites.

Loading next visibility...
STARONE C3 details
Identifier
38991, 2012-062A
Orbit
GEO
Last TLE update15 hours ago
Origin
Flag of BRStar One (BR / BRAZ)
ManufacturerOSC
MissionOperational Commercial Communications
Bus & MotorSTAR-2.4E, IHI
Mass3,226 kg wet, ~1,530 kg dry
Launch date (UTC)
2012-11-10 (12 years ago)
Launch vehicle
ARIANE 5ECA
Launch site
French Guiana (FRGUI)
Object type
Payload
Rocket body
Debris
Shape & HBRBox + 2 Pan, 23 m
Radar Cross Section29.105 m², Large (>1 m²)

Expand to show TLE details & history

TLE from 15 hours ago
0 STARONE C3
1 38991U 12062A   25035.52594308 -.00000246  00000-0  00000+0 0  9994
2 38991   0.0532 269.0535 0001759  39.9881 300.2170  1.00271297 44866
Epoch: 2025-02-04T12:37Z
Definitive object data (Epoch: 2025-02-04T12:37:21.482Z)
Latitude-0.01037°
Longitude-75.0039°
Altitude35,782.478 km
Speed3.075 km/s
True Right ascension16h 37m 03s
True Declination0° 00' 37"
Sunlit
Object was in daylight at TLE epoch
Visualization TLE readout
Latitude-0.01739°
Longitude155.42258°
Altitude35,793.627 km
Speed3.074 km/s
Apparent Right ascension08h 13m 36s
Apparent Declination-6° 07' 53"
Sunlit
Object is in daylight
Visualization observer readout
Local Sidereal Time05:58:13
Azimuth137.851° SSE
Elevation34.391°
Doppler factor1
Orbital elements
Apogee altitude35,795.219 km
Perigee altitude35,780.385 km
Semi-major axis42,165.939 km
Eccentricity0.0001759
Inclination0.0532°
RAAN269.0535°
Arg. of periapsis39.9881°
True anomaly300.19958°
Mean anomaly300.217°
Eccentric anomaly300.20829°
Mean motion0.25067 °/min
BSTARUnknown
Orbital period1436.16 mins
Loading historical data...
38991 neighbors
Authenticating...
Loading maneuver chart data...
Loading historical data...
Loading historical data...
Loading historical data...
Loading historical data...
Loading historical data...
Loading historical data...
Loading historical data...
Other satellites on launch #62 in the year 2012 (2012-11-10 UTC)

STARONE C3 Visibility forecast

Observer location: undefined°, undefined

Span
Click to sort rows by Start time (UTC) header in descending order
Start Az.
Max El. time (UTC)
Max El. Az.
Max El.
End time (UTC)
End Az.
1440 mins2025-02-05 03:56:27.846Z137.864° SSE2025-02-05 19:51:27.846Z137.816° SSE29.476°2025-02-06 03:56:27.846Z137.862° SSE
|